Regional Weather Roundup
Issued by NWS

Home | Current Version | Previous Version | Graphics & Text | Print | Product List | Glossary Off
Versions: 1 2 3 4 5 6 7 8 9 10 11 12 13 14 15 16 17 18 19 20 21 22 23 24 25 26 27 28 29 30 31 32 33 34 35 36 37 38 39 40 41 42 43 44 45 46 47 48 49 50

000
ASUS43 KLSX 290007
RWRMO

WEATHER SUMMARY FOR MISSOURI
NATIONAL WEATHER SERVICE SPRINGFIELD MO
700 PM CDT THU AUG 28 2014

NOTE: "FAIR" INDICATES FEW OR NO CLOUDS BELOW 12,000 FEET WITH NO
       SIGNIFICANT WEATHER AND/OR OBSTRUCTIONS TO VISIBILITY.
       CURRENT SKY AND/OR WEATHER CONDITIONS ARE NOT AVAILABLE FOR
       CHILLICOTHE AND FARMINGTON.

MOZ001>031-035>038-043-044-053-054-290100-
...NORTHERN AND WESTERN MISSOURI...

CITY           SKY/WX    TMP DP  RH WIND       PRES   REMARKS
KANSAS CTY INT PTCLDY    86  68  54 S14       29.86F
6HR MIN TEMP:  86; 6HR MAX TEMP:  93;

KANSAS C DTWN  CLEAR     90  66  45 S15G21    29.85F HX  92
6HR MIN TEMP:  88; 6HR MAX TEMP:  95;

LEE`S SUMMIT   CLEAR     88  66  48 S9        29.88F HX  90
6HR MIN TEMP:  87; 6HR MAX TEMP:  91;

ST JOSEPH      PTCLDY    87  71  58 SE9       29.83F HX  93
6HR MIN TEMP:  85; 6HR MAX TEMP:  91;

CHILLICOTHE      N/A     86  73  65 S5        29.89S HX  93
6HR MIN TEMP:  75; 6HR MAX TEMP:  88;

KIRKSVILLE     PTCLDY    81  73  76 E6        29.93F
6HR MIN TEMP:  77; 6HR MAX TEMP:  85; 6HR PCP:  0.03;


$$
MOZ066>068-077>081-088>096-101>105-290100-
...SOUTHWEST MISSOURI...

CITY           SKY/WX    TMP DP  RH WIND       PRES   REMARKS
SPRINGFIELD    CLEAR     89  58  34 S8        29.92S
6HR MIN TEMP:  89; 6HR MAX TEMP:  94;

JOPLIN         CLEAR     89  59  36 S10       29.91R
6HR MIN TEMP:  88; 6HR MAX TEMP:  94;


$$
MOZ032>034-039>042-045>050-055>058-069>072-290100-
...CENTRAL MISSOURI...

CITY           SKY/WX    TMP DP  RH WIND       PRES   REMARKS
COLUMBIA       CLEAR     88  69  53 S6        29.91F HX  92
6HR MIN TEMP:  88; 6HR MAX TEMP:  94;

JEFFERSON CITY CLEAR     90  69  50 SE3       29.89F HX  94
6HR MIN TEMP:  90; 6HR MAX TEMP:  93;

ROLLA          CLEAR     88  63  43 S6        29.93S
6HR MIN TEMP:  88; 6HR MAX TEMP:  93;

SEDALIA        PTCLDY    88  67  49 S5        29.90F HX  91
6HR MIN TEMP:  88; 6HR MAX TEMP:  93;

WHITEMAN AFB   PTCLDY    86  73  64 SE3       29.88F HX  94
OSAGE BEACH    CLEAR     90  63  40 SE3       29.91S HX  90

$$
MOZ051-052-059>065-290100-
...EAST CENTRAL MISSOURI...

CITY           SKY/WX    TMP DP  RH WIND       PRES   REMARKS
ST LOUIS INTL  LGT RAIN  77  73  87 N9        29.97R
6HR MIN TEMP:  77; 6HR MAX TEMP:  92; 6HR PCP:  0.19;

SPIRIT OF STL  MOCLDY    77  71  82 E7        29.94R
6HR MIN TEMP:  75; 6HR MAX TEMP:  92; 6HR PCP:  0.02;

ST CHARLES     CLOUDY    74  71  91 NE13      29.95F THUNDER FOG
6HR MIN TEMP:  73; 6HR MAX TEMP:  91; 6HR PCP:  0.99;


$$
MOZ072>076-082>087-097>100-106>115-290100-
...SOUTH CENTRAL AND SOUTHEAST MISSOURI...

CITY           SKY/WX    TMP DP  RH WIND       PRES   REMARKS
CAPE GIRARDEAU CLOUDY    75  70  84 E6        29.97S
6HR MIN TEMP:  74; 6HR MAX TEMP:  90; 6HR PCP:  0.02;

FARMINGTON     MOCLDY    79  70  73 E12G22    30.00R THUNDER
6HR MIN TEMP:  79; 6HR MAX TEMP:  91;

POPLAR BLUFF   PTCLDY    89  66  46 S3        29.93F HX  91
6HR MIN TEMP:  89; 6HR MAX TEMP:  92;

WEST PLAINS    PTCLDY    88  61  40 SE3       29.96S
6HR MIN TEMP:  88; 6HR MAX TEMP:  92;


$$


USA.gov is the U.S. government's official web portal to all federal, state and local government web resources and services.